Weather History for Alturas, CA

Change the Weather History Date:

Thursday, November 1, 2012

  Actual Average Record
Temperature  
Mean Temperature 42 °F 41 °F  
Max Temperature 56 °F 57 °F 82 °F (1962)
Min Temperature 27 °F 26 °F 0 °F (2002)
Degree Days  
Heating Degree Days 23 24  
Month to date heating degree days 23 24  
Since 1 July heating degree days 680 967  
Cooling Degree Days 0 0  
Month to date cooling degree days 0 0  
Year to date cooling degree days 224 156  
Moisture  
Dew Point 36 °F    
Average Humidity 71    
Maximum Humidity 92    
Minimum Humidity 50    
Precipitation  
Precipitation T in 0.07 in 0.44 in (1992)
Month to date precipitation T 0.07  
Year to date precipitation 6.25 10.74  
Sea Level Pressure  
Sea Level Pressure 30.02 in    
Wind  
Wind Speed 6 mph (SW)    
Max Wind Speed 15 mph    
Max Gust Speed 21 mph    
Visibility 10 miles    
Events Rain    
T = Trace of Precipitation, MM = Missing Value Source: NWS Daily Summary

Daily Weather History Graph

Daily Weather History Graph

Search for Another Location

Airport:

Trip Planner

Search our weather history database for the weather conditions in past years. The results will help you decide how hot, cold, wet, or windy it might be!

Date:

Astronomy

Nov. 01, 2012 Rise Set
Actual Time 7:34 AM PDT 5:56 PM PDT
Civil Twilight 7:05 AM PDT 6:25 PM PDT
Nautical Twilight 6:33 AM PDT 6:57 PM PDT
Astronomical Twilight 6:00 AM PDT 7:30 PM PDT
Moon 7:56 PM PDT (11/1) 10:13 AM PDT (11/1)
Length of Visible Light 11h 19m
Length of Day
10h 21m
Waning Gibbous, 92% of the Moon is Illuminated
Nov 1
Waning Gibbous
Nov 6
Last Quarter
Nov 13
New
Nov 20
First Quarter
Nov 28
Full

Hourly Weather History & Observations

Time (PDT) Temp. Windchill Dew Point Humidity Pressure Visibility Wind Dir Wind Speed Gust Speed Precip Events Conditions
12:55 AM 44.1 °F 38.6 °F 37.9 °F 79% 29.92 in 10.0 mi South 10.4 mph - N/A   Overcast
1:55 AM 41.0 °F 35.8 °F 36.0 °F 82% 29.92 in 10.0 mi SSE 8.1 mph - N/A   Partly Cloudy
2:55 AM 39.9 °F 34.5 °F 36.0 °F 86% 29.91 in 10.0 mi South 8.1 mph - N/A   Clear
3:55 AM 39.9 °F 33.9 °F 36.0 °F 86% 29.92 in 10.0 mi SSE 9.2 mph - N/A   Mostly Cloudy
4:55 AM 39.0 °F - 36.0 °F 89% 29.93 in 10.0 mi Calm Calm - N/A   Clear
5:55 AM 37.9 °F 34.4 °F 36.0 °F 93% 29.95 in 10.0 mi SE 4.6 mph - N/A   Scattered Clouds
6:55 AM 39.9 °F 33.9 °F 37.0 °F 89% 29.98 in 10.0 mi SE 9.2 mph - N/A   Mostly Cloudy
7:55 AM 43.0 °F 37.7 °F 37.9 °F 82% 29.99 in 10.0 mi South 9.2 mph - N/A   Overcast
8:55 AM 43.0 °F 36.8 °F 37.0 °F 80% 30.01 in 10.0 mi South 11.5 mph - N/A   Overcast
9:21 AM 44.6 °F 41.4 °F 37.4 °F 76% 30.03 in 10.0 mi SW 5.8 mph - N/A   Overcast
9:55 AM 45.0 °F 42.6 °F 39.0 °F 80% 30.03 in 10.0 mi WSW 4.6 mph - 0.00 in Rain Light Rain
10:26 AM 48.2 °F - 41.0 °F 76% 30.04 in 10.0 mi NW 4.6 mph - 0.00 in   Overcast
10:55 AM 46.9 °F - 41.0 °F 80% 30.03 in 10.0 mi Calm Calm - 0.00 in   Overcast
11:30 AM 46.4 °F 42.9 °F 41.0 °F 81% 30.05 in 10.0 mi Variable 6.9 mph - N/A   Overcast
11:52 AM 50.0 °F - 41.0 °F 71% 30.05 in 10.0 mi WSW 4.6 mph - N/A   Scattered Clouds
11:55 AM 50.0 °F - 41.0 °F 71% 30.02 in 10.0 mi West 5.8 mph - N/A   Scattered Clouds
12:55 PM 52.0 °F - 39.0 °F 61% 30.00 in 10.0 mi Calm Calm - N/A   Scattered Clouds
1:55 PM 53.1 °F - 37.0 °F 55% 30.01 in 10.0 mi West 9.2 mph - N/A   Mostly Cloudy
2:55 PM 54.0 °F - 36.0 °F 51% 30.01 in 10.0 mi West 6.9 mph - N/A   Partly Cloudy
3:55 PM 54.0 °F - 35.1 °F 49% 30.02 in 10.0 mi West 11.5 mph - N/A   Clear
4:55 PM 52.0 °F - 34.0 °F 50% 30.03 in 10.0 mi West 11.5 mph - N/A   Clear
5:55 PM 46.9 °F - 35.1 °F 63% 30.04 in 10.0 mi WNW 8.1 mph - N/A   Clear
6:55 PM 43.0 °F 40.3 °F 34.0 °F 71% 30.07 in 10.0 mi SW 4.6 mph - N/A   Clear
7:55 PM 39.9 °F 35.8 °F 33.1 °F 77% 30.08 in 10.0 mi East 5.8 mph - N/A   Clear
8:55 PM 35.1 °F - 32.0 °F 89% 30.10 in 10.0 mi Calm Calm - N/A   Clear
9:55 PM 30.9 °F - 28.0 °F 89% 30.12 in 10.0 mi Calm Calm - N/A   Partly Cloudy
10:55 PM 32.0 °F 28.7 °F 30.0 °F 92% 30.11 in 4.0 mi Variable 3.5 mph - N/A   Partly Cloudy
11:55 PM 28.0 °F 24.2 °F 26.1 °F 92% 30.13 in 10.0 mi NW 3.5 mph - N/A   Clear